This is the latest recevied weather packets stored in our database for station/object F4IKI-10. If no packets are shown the sender has not sent any weather packets the latest 10 day(s).
| Time | Temp. | Humidity | Pressure | Rain* | Wind** | Luminosity | Snow |
|---|---|---|---|---|---|---|---|
| 1777555613 | 20° C | 67% | 1020.5 hPa | - | - | - | - |
| 1777554712 | 19.44° C | 67% | 1020.1 hPa | - | - | - | - |
| 1777553812 | 19.44° C | 67% | 1019.9 hPa | - | - | - | - |
| 1777552912 | 19.44° C | 66% | 1019.9 hPa | - | - | - | - |
| 1777552012 | 19.44° C | 66% | 1020 hPa | - | - | - | - |
| 1777551112 | 19.44° C | 65% | 1019.8 hPa | - | - | - | - |
| 1777550212 | 18.89° C | 64% | 1019.9 hPa | - | - | - | - |
| 1777549312 | 18.33° C | 65% | 1019.9 hPa | - | - | - | - |
| 1777548412 | 18.33° C | 65% | 1020.4 hPa | - | - | - | - |
| 1777547512 | 18.33° C | 66% | 1020 hPa | - | - | - | - |
| 1777546611 | 18.33° C | 65% | 1019.9 hPa | - | - | - | - |
| 1777545711 | 18.33° C | 64% | 1019.9 hPa | - | - | - | - |
| 1777544811 | 18.33° C | 64% | 1019.8 hPa | - | - | - | - |
| 1777543911 | 18.33° C | 65% | 1019.7 hPa | - | - | - | - |
| 1777543011 | 18.89° C | 66% | 1019.5 hPa | - | - | - | - |
| 1777542111 | 18.89° C | 67% | 1019.7 hPa | - | - | - | - |
| 1777541211 | 18.33° C | 68% | 1019.3 hPa | - | - | - | - |
| 1777540311 | 18.33° C | 67% | 1018.9 hPa | - | - | - | - |
| 1777539411 | 18.89° C | 68% | 1018.8 hPa | - | - | - | - |
| 1777538510 | 18.89° C | 69% | 1018.7 hPa | - | - | - | - |
| 1777537610 | 18.89° C | 72% | 1018.6 hPa | - | - | - | - |
| 1777536710 | 19.44° C | 73% | 1018.3 hPa | - | - | - | - |
| 1777535810 | 20° C | 70% | 1018.1 hPa | - | - | - | - |
| 1777534910 | 20° C | 70% | 1018.1 hPa | - | - | - | - |
| 1777534010 | 20° C | 70% | 1018.1 hPa | - | - | - | - |
* Rain since midnight (hover to see other rain measurements)
** Current wind speed in m/s (hover to see current wind gust speed)